| time (UTC) | temp F | wind direction | speed MPH | gust MPH | rain 1hr in | rain 24hr in | rain mn in | humidity % | barometer mb |
| 20260509053504 | 52 | 113 | 0.0 | 1.0 | 0.00 | 0.00 | 0.00 | 74 | 1014.7 |
| 20260509053008 | 52 | 114 | 0.0 | 1.0 | 0.00 | 0.00 | 0.00 | 76 | 1014.6 |
| 20260509052504 | 50 | 114 | 0.0 | 1.0 | 0.00 | 0.00 | 0.00 | 77 | 1014.6 |
| 20260509052006 | 49 | 114 | 0.0 | 1.0 | 0.00 | 0.00 | 0.00 | 77 | 1014.6 |
| 20260509051515 | 49 | 80 | 0.0 | 1.0 | 0.00 | 0.00 | 0.00 | 77 | 1014.6 |
| 20260509051009 | 49 | 283 | 0.0 | 0.0 | 0.00 | 0.00 | 0.00 | 77 | 1014.6 |
| 20260509050508 | 49 | 283 | 0.0 | 1.0 | 0.00 | 0.00 | 0.00 | 77 | 1014.5 |
| 20260509050020 | 48 | 283 | 0.0 | 1.0 | 0.00 | 0.00 | 0.00 | 75 | 1014.5 |
| 20260509045505 | 48 | 283 | 0.0 | 1.0 | 0.00 | 0.00 | 0.00 | 75 | 1014.5 |
| 20260509045007 | 47 | 283 | 0.0 | 1.0 | 0.00 | 0.00 | 0.00 | 75 | 1014.5 |
| 20260509044520 | 47 | 285 | 0.0 | 1.0 | 0.00 | 0.00 | 0.00 | 76 | 1014.4 |
| 20260509044007 | 47 | 238 | 0.0 | 1.0 | 0.00 | 0.00 | 0.00 | 76 | 1014.3 |
| 20260509043510 | 47 | 136 | 0.0 | 1.0 | 0.00 | 0.00 | 0.00 | 77 | 1014.2 |
| 20260509043023 | 47 | 136 | 0.0 | 1.0 | 0.00 | 0.00 | 0.00 | 75 | 1014.1 |
| 20260509042503 | 48 | 136 | 0.0 | 1.0 | 0.00 | 0.00 | 0.00 | 75 | 1014.1 |
| 20260509042002 | 48 | 136 | 0.0 | 1.0 | 0.00 | 0.00 | 0.00 | 72 | 1014.1 |
| 20260509041507 | 50 | 127 | 0.0 | 2.0 | 0.00 | 0.00 | 0.00 | 71 | 1014.0 |
| 20260509041004 | 51 | 122 | 0.0 | 2.0 | 0.00 | 0.00 | 0.00 | 68 | 1014.0 |
| 20260509040503 | 51 | 123 | 0.0 | 2.0 | 0.00 | 0.00 | 0.00 | 67 | 1014.0 |
| 20260509040010 | 51 | 193 | 0.0 | 2.0 | 0.00 | 0.00 | 0.00 | 67 | 1014.0 |
| 20260509035507 | 51 | 148 | 0.0 | 2.0 | 0.00 | 0.00 | 0.00 | 67 | 1014.0 |
| 20260509035004 | 51 | 254 | 0.0 | 2.0 | 0.00 | 0.00 | 0.00 | 67 | 1014.0 |
| 20260509034516 | 51 | 163 | 0.0 | 2.0 | 0.00 | 0.00 | 0.00 | 66 | 1014.1 |
| 20260509034010 | 51 | 167 | 0.0 | 2.0 | 0.00 | 0.00 | 0.00 | 66 | 1014.3 |
| 20260509033505 | 51 | 138 | 0.0 | 2.0 | 0.00 | 0.00 | 0.00 | 66 | 1014.2 |
| 20260509033020 | 51 | 261 | 0.0 | 2.0 | 0.00 | 0.00 | 0.00 | 66 | 1014.3 |
| 20260509032507 | 51 | 264 | 1.0 | 2.0 | 0.00 | 0.00 | 0.00 | 65 | 1014.3 |
| 20260509032010 | 50 | 130 | 0.0 | 2.0 | 0.00 | 0.00 | 0.00 | 66 | 1014.3 |
| 20260509031525 | 50 | 255 | 0.0 | 2.0 | 0.00 | 0.00 | 0.00 | 67 | 1014.4 |
| 20260509031013 | 50 | 158 | 0.0 | 1.0 | 0.00 | 0.00 | 0.00 | 67 | 1014.3 |
| 20260509030504 | 51 | 119 | 0.0 | 1.0 | 0.00 | 0.00 | 0.00 | 66 | 1014.3 |
| 20260509030008 | 51 | 159 | 0.0 | 2.0 | 0.00 | 0.00 | 0.00 | 64 | 1014.3 |
| 20260509025504 | 51 | 137 | 0.0 | 2.0 | 0.00 | 0.00 | 0.00 | 64 | 1014.4 |
| 20260509025007 | 51 | 141 | 0.0 | 2.0 | 0.00 | 0.00 | 0.00 | 64 | 1014.4 |
| 20260509024510 | 51 | 141 | 0.0 | 3.0 | 0.00 | 0.00 | 0.00 | 64 | 1014.4 |
| 20260509024005 | 52 | 117 | 0.0 | 3.0 | 0.00 | 0.00 | 0.00 | 63 | 1014.4 |
| 20260509023508 | 52 | 127 | 0.0 | 2.0 | 0.00 | 0.00 | 0.00 | 64 | 1014.4 |
| 20260509023018 | 51 | 122 | 1.0 | 5.0 | 0.00 | 0.00 | 0.00 | 65 | 1014.3 |
| 20260509022505 | 51 | 131 | 1.0 | 5.0 | 0.00 | 0.00 | 0.00 | 65 | 1014.3 |
| 20260509022006 | 51 | 121 | 0.0 | 2.0 | 0.00 | 0.00 | 0.00 | 66 | 1014.4 |
| 20260509021521 | 50 | 124 | 0.0 | 1.0 | 0.00 | 0.00 | 0.00 | 67 | 1014.4 |
| 20260509021009 | 50 | 124 | 0.0 | 1.0 | 0.00 | 0.00 | 0.00 | 66 | 1014.4 |
| 20260509020511 | 50 | 319 | 0.0 | 1.0 | 0.00 | 0.00 | 0.00 | 66 | 1014.5 |
| 20260509020025 | 50 | 133 | 0.0 | 2.0 | 0.00 | 0.00 | 0.00 | 66 | 1014.5 |
| 20260509015510 | 51 | 120 | 0.0 | 2.0 | 0.00 | 0.00 | 0.00 | 65 | 1014.4 |
| 20260509015012 | 50 | 146 | 0.0 | 1.0 | 0.00 | 0.00 | 0.00 | 65 | 1014.4 |
| 20260509014510 | 50 | 132 | 0.0 | 1.0 | 0.00 | 0.00 | 0.00 | 65 | 1014.4 |
| 20260509014002 | 51 | 150 | 0.0 | 1.0 | 0.00 | 0.00 | 0.00 | 65 | 1014.5 |
| 20260509013506 | 51 | 188 | 0.0 | 4.0 | 0.00 | 0.00 | 0.00 | 64 | 1014.5 |
| 20260509013033 | 51 | 148 | 0.0 | 4.0 | 0.00 | 0.00 | 0.00 | 64 | 1014.5 |
| 20260509012506 | 51 | 140 | 0.0 | 3.0 | 0.00 | 0.00 | 0.00 | 64 | 1014.6 |
| 20260509012007 | 51 | 124 | 1.0 | 5.0 | 0.00 | 0.00 | 0.00 | 64 | 1014.6 |
| 20260509011519 | 51 | 105 | 2.0 | 5.0 | 0.00 | 0.00 | 0.00 | 64 | 1014.7 |
| 20260509011005 | 51 | 136 | 0.0 | 3.0 | 0.00 | 0.00 | 0.00 | 65 | 1014.9 |
| 20260509010506 | 51 | 240 | 1.0 | 3.0 | 0.00 | 0.00 | 0.00 | 65 | 1014.8 |
| 20260509010022 | 51 | 140 | 0.0 | 2.0 | 0.00 | 0.00 | 0.00 | 66 | 1014.9 |
| 20260509005508 | 51 | 115 | 0.0 | 2.0 | 0.00 | 0.00 | 0.00 | 66 | 1014.9 |
| 20260509005011 | 51 | 104 | 0.0 | 2.0 | 0.00 | 0.00 | 0.00 | 67 | 1015.0 |
| 20260509004526 | 51 | 138 | 0.0 | 1.0 | 0.00 | 0.00 | 0.00 | 67 | 1015.1 |
| 20260509004009 | 51 | 146 | 0.0 | 2.0 | 0.00 | 0.00 | 0.00 | 67 | 1015.1 |
| 20260509003515 | 50 | 144 | 0.0 | 3.0 | 0.00 | 0.00 | 0.00 | 68 | 1015.1 |
| 20260509003027 | 50 | 178 | 0.0 | 3.0 | 0.00 | 0.00 | 0.00 | 69 | 1015.1 |
| 20260509002505 | 49 | 136 | 0.0 | 1.0 | 0.00 | 0.00 | 0.00 | 72 | 1015.1 |
| 20260509002002 | 48 | 148 | 0.0 | 1.0 | 0.00 | 0.00 | 0.00 | 75 | 1015.1 |
| 20260509001516 | 48 | 162 | 0.0 | 1.0 | 0.00 | 0.00 | 0.00 | 80 | 1015.2 |
| 20260509001008 | 48 | 166 | 0.0 | 0.0 | 0.00 | 0.00 | 0.00 | 81 | 1015.1 |
| 20260509000505 | 49 | 167 | 0.0 | 0.0 | 0.00 | 0.00 | 0.00 | 80 | 1015.1 |
| 20260509000020 | 49 | 167 | 0.0 | 1.0 | 0.00 | 0.00 | 0.00 | 78 | 1015.1 |
| 20260508235502 | 50 | 254 | 0.0 | 1.0 | 0.00 | 0.00 | 0.00 | 75 | 1015.1 |
| 20260508235004 | 51 | 153 | 0.0 | 1.0 | 0.00 | 0.00 | 0.00 | 75 | 1015.1 |
| 20260508234506 | 51 | 153 | 0.0 | 1.0 | 0.00 | 0.00 | 0.00 | 69 | 1015.1 |
| 20260508234003 | 51 | 116 | 0.0 | 1.0 | 0.00 | 0.00 | 0.00 | 69 | 1015.1 |
| 20260508233503 | 52 | 116 | 0.0 | 2.0 | 0.00 | 0.00 | 0.00 | 70 | 1015.1 |
| 20260508233008 | 52 | 99 | 0.0 | 2.0 | 0.00 | 0.00 | 0.00 | 68 | 1015.1 |
| 20260508232502 | 53 | 130 | 0.0 | 3.0 | 0.00 | 0.00 | 0.00 | 65 | 1015.0 |
| 20260508232006 | 53 | 122 | 1.0 | 3.0 | 0.00 | 0.00 | 0.00 | 63 | 1014.9 |
| 20260508231505 | 53 | 89 | 1.0 | 3.0 | 0.00 | 0.00 | 0.00 | 63 | 1015.0 |
| 20260508231004 | 52 | 134 | 1.0 | 2.0 | 0.00 | 0.00 | 0.00 | 64 | 1015.0 |
| 20260508230503 | 52 | 111 | 0.0 | 1.0 | 0.00 | 0.00 | 0.00 | 65 | 1015.0 |
| 20260508230017 | 52 | 137 | 0.0 | 1.0 | 0.00 | 0.00 | 0.00 | 66 | 1015.1 |
| 20260508225503 | 52 | 137 | 0.0 | 1.0 | 0.00 | 0.00 | 0.00 | 66 | 1015.1 |
| 20260508225004 | 52 | 121 | 0.0 | 1.0 | 0.00 | 0.00 | 0.00 | 67 | 1015.1 |
| 20260508224510 | 52 | 121 | 0.0 | 0.0 | 0.00 | 0.00 | 0.00 | 67 | 1015.1 |
| 20260508224003 | 53 | 120 | 0.0 | 1.0 | 0.00 | 0.00 | 0.00 | 65 | 1015.1 |
| 20260508223506 | 53 | 120 | 0.0 | 1.0 | 0.00 | 0.00 | 0.00 | 59 | 1015.1 |
| 20260508223012 | 53 | 117 | 0.0 | 2.0 | 0.00 | 0.00 | 0.00 | 59 | 1015.1 |
| 20260508222507 | 53 | 125 | 0.0 | 3.0 | 0.00 | 0.00 | 0.00 | 59 | 1015.2 |
| 20260508222005 | 53 | 178 | 0.0 | 3.0 | 0.00 | 0.00 | 0.00 | 59 | 1015.2 |
| 20260508221506 | 53 | 129 | 0.0 | 2.0 | 0.00 | 0.00 | 0.00 | 59 | 1015.2 |
| 20260508221003 | 53 | 148 | 0.0 | 2.0 | 0.00 | 0.00 | 0.00 | 59 | 1015.1 |
| 20260508220504 | 53 | 123 | 1.0 | 2.0 | 0.00 | 0.00 | 0.00 | 59 | 1015.2 |
| 20260508220012 | 53 | 149 | 0.0 | 2.0 | 0.00 | 0.00 | 0.00 | 60 | 1015.2 |
| 20260508215504 | 52 | 179 | 0.0 | 2.0 | 0.00 | 0.00 | 0.00 | 61 | 1015.2 |
| 20260508215004 | 52 | 167 | 0.0 | 1.0 | 0.00 | 0.00 | 0.00 | 62 | 1015.3 |
| 20260508214512 | 51 | 233 | 0.0 | 1.0 | 0.00 | 0.00 | 0.00 | 64 | 1015.3 |
| 20260508214007 | 52 | 131 | 0.0 | 1.0 | 0.00 | 0.00 | 0.00 | 64 | 1015.3 |
| 20260508213503 | 52 | 130 | 0.0 | 0.0 | 0.00 | 0.00 | 0.00 | 62 | 1015.3 |
| 20260508213008 | 53 | 130 | 0.0 | 0.0 | 0.00 | 0.00 | 0.00 | 61 | 1015.3 |
| 20260508212503 | 54 | 130 | 0.0 | 1.0 | 0.00 | 0.00 | 0.00 | 60 | 1015.2 |
| 20260508212004 | 54 | 129 | 0.0 | 2.0 | 0.00 | 0.00 | 0.00 | 57 | 1015.1 |
| 20260508211509 | 55 | 148 | 0.0 | 3.0 | 0.00 | 0.00 | 0.00 | 56 | 1015.1 |
| 20260508211004 | 55 | 143 | 1.0 | 3.0 | 0.00 | 0.00 | 0.00 | 55 | 1015.1 |
| 20260508210506 | 55 | 137 | 1.0 | 3.0 | 0.00 | 0.00 | 0.00 | 55 | 1015.1 |
| 20260508210010 | 55 | 130 | 1.0 | 3.0 | 0.00 | 0.00 | 0.00 | 55 | 1015.1 |
| 20260508205504 | 55 | 149 | 1.0 | 3.0 | 0.00 | 0.00 | 0.00 | 56 | 1015.1 |
| 20260508205005 | 55 | 139 | 1.0 | 3.0 | 0.00 | 0.00 | 0.00 | 56 | 1015.1 |
| 20260508204517 | 55 | 131 | 1.0 | 3.0 | 0.00 | 0.00 | 0.00 | 57 | 1015.1 |
| 20260508204004 | 55 | 153 | 1.0 | 3.0 | 0.00 | 0.00 | 0.00 | 58 | 1015.1 |
| 20260508203504 | 55 | 153 | 0.0 | 4.0 | 0.00 | 0.00 | 0.00 | 59 | 1015.1 |
| 20260508203012 | 55 | 124 | 1.0 | 4.0 | 0.00 | 0.00 | 0.00 | 59 | 1015.1 |
| 20260508202504 | 55 | 103 | 1.0 | 4.0 | 0.00 | 0.00 | 0.00 | 59 | 1015.1 |
| 20260508202006 | 55 | 124 | 1.0 | 4.0 | 0.00 | 0.00 | 0.00 | 60 | 1015.1 |
| 20260508201517 | 55 | 128 | 1.0 | 4.0 | 0.00 | 0.00 | 0.00 | 60 | 1015.1 |
| 20260508201007 | 55 | 110 | 2.0 | 4.0 | 0.00 | 0.00 | 0.00 | 60 | 1015.1 |
| 20260508200503 | 55 | 168 | 1.0 | 3.0 | 0.00 | 0.00 | 0.00 | 61 | 1015.1 |
| 20260508200004 | 55 | 108 | 1.0 | 3.0 | 0.00 | 0.00 | 0.00 | 61 | 1015.1 |
| 20260508195504 | 55 | 117 | 1.0 | 3.0 | 0.00 | 0.00 | 0.00 | 61 | 1015.0 |
| 20260508195003 | 55 | 139 | 1.0 | 2.0 | 0.00 | 0.00 | 0.00 | 61 | 1015.0 |
| 20260508194510 | 55 | 134 | 0.0 | 1.0 | 0.00 | 0.00 | 0.00 | 61 | 1015.0 |
| 20260508194005 | 56 | 157 | 0.0 | 2.0 | 0.00 | 0.00 | 0.00 | 60 | 1014.9 |
| 20260508193504 | 56 | 122 | 0.0 | 3.0 | 0.00 | 0.00 | 0.00 | 59 | 1014.8 |
| 20260508193012 | 56 | 257 | 0.0 | 3.0 | 0.00 | 0.00 | 0.00 | 59 | 1014.6 |
| 20260508192508 | 56 | 112 | 0.0 | 3.0 | 0.00 | 0.00 | 0.00 | 58 | 1014.6 |
| 20260508192006 | 56 | 124 | 0.0 | 4.0 | 0.00 | 0.00 | 0.00 | 58 | 1014.6 |
| 20260508191516 | 57 | 248 | 0.0 | 4.0 | 0.00 | 0.00 | 0.00 | 58 | 1014.5 |
| 20260508191008 | 57 | 244 | 0.0 | 3.0 | 0.00 | 0.00 | 0.00 | 57 | 1014.4 |
| 20260508190504 | 57 | 88 | 1.0 | 3.0 | 0.00 | 0.00 | 0.00 | 58 | 1014.4 |
| 20260508190031 | 57 | 140 | 1.0 | 3.0 | 0.00 | 0.00 | 0.00 | 58 | 1014.4 |
| 20260508185508 | 58 | 246 | 1.0 | 3.0 | 0.00 | 0.00 | 0.00 | 58 | 1014.3 |
| 20260508185002 | 58 | 136 | 1.0 | 3.0 | 0.00 | 0.00 | 0.00 | 59 | 1014.3 |
| 20260508184507 | 58 | 95 | 1.0 | 3.0 | 0.00 | 0.00 | 0.00 | 62 | 1014.3 |
| 20260508184005 | 58 | 151 | 0.0 | 3.0 | 0.00 | 0.00 | 0.00 | 62 | 1014.3 |
| 20260508183507 | 59 | 153 | 1.0 | 3.0 | 0.00 | 0.00 | 0.00 | 61 | 1014.3 |
| 20260508183011 | 59 | 95 | 0.0 | 3.0 | 0.00 | 0.00 | 0.00 | 60 | 1014.4 |
| 20260508182505 | 59 | 129 | 0.0 | 5.0 | 0.00 | 0.00 | 0.00 | 60 | 1014.3 |
| 20260508182006 | 59 | 119 | 0.0 | 5.0 | 0.00 | 0.00 | 0.00 | 59 | 1014.3 |
| 20260508181522 | 60 | 153 | 0.0 | 3.0 | 0.00 | 0.00 | 0.00 | 59 | 1014.3 |
| 20260508181007 | 60 | 226 | 1.0 | 4.0 | 0.00 | 0.00 | 0.00 | 58 | 1014.2 |
| 20260508180510 | 60 | 133 | 1.0 | 4.0 | 0.00 | 0.00 | 0.00 | 58 | 1014.2 |
| 20260508180016 | 60 | 256 | 1.0 | 5.0 | 0.00 | 0.00 | 0.00 | 59 | 1014.1 |
| 20260508175508 | 61 | 172 | 1.0 | 5.0 | 0.00 | 0.00 | 0.00 | 59 | 1014.0 |
| 20260508175011 | 61 | 97 | 1.0 | 5.0 | 0.00 | 0.00 | 0.00 | 59 | 1014.0 |
| 20260508174526 | 62 | 136 | 0.0 | 5.0 | 0.00 | 0.00 | 0.00 | 58 | 1013.9 |
| 20260508174014 | 62 | 97 | 1.0 | 2.0 | 0.00 | 0.00 | 0.00 | 57 | 1013.8 |
| 20260508173505 | 63 | 192 | 0.0 | 2.0 | 0.00 | 0.00 | 0.00 | 56 | 1013.7 |
| 20260508173005 | 63 | 97 | 0.0 | 3.0 | 0.00 | 0.00 | 0.00 | 55 | 1013.7 |
| 20260508172510 | 63 | 210 | 0.0 | 3.0 | 0.00 | 0.00 | 0.00 | 57 | 1013.6 |
| 20260508172007 | 63 | 141 | 0.0 | 3.0 | 0.00 | 0.00 | 0.00 | 58 | 1013.5 |
| 20260508171517 | 63 | 149 | 0.0 | 3.0 | 0.00 | 0.00 | 0.00 | 57 | 1013.5 |
| 20260508171014 | 62 | 321 | 0.0 | 1.0 | 0.00 | 0.00 | 0.00 | 58 | 1013.6 |
| 20260508170504 | 62 | 281 | 0.0 | 4.0 | 0.00 | 0.00 | 0.00 | 62 | 1013.5 |
| 20260508170017 | 61 | 98 | 2.0 | 4.0 | 0.00 | 0.00 | 0.00 | 57 | 1013.5 |
| 20260508165504 | 61 | 81 | 2.0 | 4.0 | 0.00 | 0.00 | 0.00 | 59 | 1013.5 |
| 20260508165009 | 61 | 114 | 2.0 | 5.0 | 0.00 | 0.00 | 0.00 | 60 | 1013.5 |
| 20260508164524 | 61 | 98 | 1.0 | 5.0 | 0.00 | 0.00 | 0.00 | 59 | 1013.5 |
| 20260508164008 | 62 | 141 | 2.0 | 5.0 | 0.00 | 0.00 | 0.00 | 58 | 1013.4 |
| 20260508163508 | 62 | 89 | 3.0 | 5.0 | 0.00 | 0.00 | 0.00 | 59 | 1013.4 |
| 20260508163018 | 62 | 163 | 3.0 | 6.0 | 0.00 | 0.00 | 0.00 | 60 | 1013.4 |
| 20260508162510 | 62 | 100 | 3.0 | 6.0 | 0.00 | 0.00 | 0.00 | 59 | 1013.2 |
| 20260508162010 | 62 | 136 | 2.0 | 6.0 | 0.00 | 0.00 | 0.00 | 59 | 1013.3 |
| 20260508161536 | 63 | 126 | 2.0 | 8.0 | 0.00 | 0.00 | 0.00 | 58 | 1013.4 |
| 20260508161005 | 63 | 110 | 3.0 | 8.0 | 0.00 | 0.00 | 0.00 | 55 | 1013.2 |
| 20260508160506 | 64 | 98 | 3.0 | 7.0 | 0.00 | 0.00 | 0.00 | 53 | 1013.3 |
| 20260508160013 | 66 | 102 | 1.0 | 4.0 | 0.00 | 0.00 | 0.00 | 50 | 1013.3 |
| 20260508155505 | 67 | 8 | 2.0 | 4.0 | 0.00 | 0.00 | 0.00 | 51 | 1013.3 |
| 20260508155006 | 67 | 279 | 1.0 | 6.0 | 0.00 | 0.00 | 0.00 | 49 | 1013.4 |
| 20260508154517 | 67 | 124 | 1.0 | 6.0 | 0.00 | 0.00 | 0.00 | 49 | 1013.4 |
| 20260508154008 | 68 | 109 | 1.0 | 4.0 | 0.00 | 0.00 | 0.00 | 44 | 1013.2 |
| 20260508153509 | 68 | 285 | 1.0 | 4.0 | 0.00 | 0.00 | 0.00 | 45 | 1013.2 |
| 20260508153032 | 68 | 58 | 1.0 | 5.0 | 0.00 | 0.00 | 0.00 | 45 | 1013.2 |
| 20260508152511 | 68 | 282 | 2.0 | 5.0 | 0.00 | 0.00 | 0.00 | 46 | 1013.2 |
| 20260508152011 | 69 | 259 | 2.0 | 5.0 | 0.00 | 0.00 | 0.00 | 47 | 1013.1 |
| 20260508151536 | 69 | 277 | 1.0 | 4.0 | 0.00 | 0.00 | 0.00 | 44 | 1013.2 |
| 20260508151017 | 68 | 261 | 1.0 | 3.0 | 0.00 | 0.00 | 0.00 | 51 | 1013.2 |
| 20260508150509 | 67 | 127 | 1.0 | 3.0 | 0.00 | 0.00 | 0.00 | 47 | 1013.2 |
| 20260508150026 | 66 | 299 | 0.0 | 5.0 | 0.00 | 0.00 | 0.00 | 49 | 1013.1 |
| 20260508145507 | 66 | 168 | 2.0 | 5.0 | 0.00 | 0.00 | 0.00 | 49 | 1013.1 |
| 20260508145009 | 66 | 285 | 3.0 | 5.0 | 0.00 | 0.00 | 0.00 | 46 | 1013.1 |
| 20260508144514 | 68 | 109 | 1.0 | 3.0 | 0.00 | 0.00 | 0.00 | 47 | 1013.1 |
| 20260508144005 | 67 | 107 | 1.0 | 5.0 | 0.00 | 0.00 | 0.00 | 48 | 1013.1 |
| 20260508143505 | 66 | 159 | 1.0 | 5.0 | 0.00 | 0.00 | 0.00 | 48 | 1013.1 |
| 20260508143018 | 67 | 281 | 3.0 | 5.0 | 0.00 | 0.00 | 0.00 | 47 | 1013.1 |
| 20260508142512 | 67 | 74 | 2.0 | 5.0 | 0.00 | 0.00 | 0.00 | 50 | 1013.1 |
| 20260508142009 | 67 | 305 | 1.0 | 4.0 | 0.00 | 0.00 | 0.00 | 50 | 1013.2 |
| 20260508141522 | 67 | 53 | 1.0 | 4.0 | 0.00 | 0.00 | 0.00 | 50 | 1013.2 |
| 20260508141012 | 68 | 139 | 1.0 | 5.0 | 0.00 | 0.00 | 0.00 | 49 | 1013.4 |
| 20260508140510 | 67 | 120 | 1.0 | 7.0 | 0.00 | 0.00 | 0.00 | 48 | 1013.4 |
| 20260508140026 | 67 | 267 | 2.0 | 10.0 | 0.00 | 0.00 | 0.00 | 51 | 1013.4 |
| 20260508135503 | 68 | 285 | 3.0 | 10.0 | 0.00 | 0.00 | 0.00 | 50 | 1013.4 |
| 20260508135006 | 67 | 247 | 2.0 | 7.0 | 0.00 | 0.00 | 0.00 | 53 | 1013.4 |
| 20260508134511 | 67 | 232 | 2.0 | 5.0 | 0.00 | 0.00 | 0.00 | 48 | 1013.4 |
| 20260508134005 | 67 | 274 | 2.0 | 7.0 | 0.00 | 0.00 | 0.00 | 47 | 1013.4 |
| 20260508133505 | 67 | 333 | 1.0 | 7.0 | 0.00 | 0.00 | 0.00 | 50 | 1013.4 |
| 20260508133014 | 67 | 122 | 1.0 | 5.0 | 0.00 | 0.00 | 0.00 | 49 | 1013.4 |
| 20260508132505 | 67 | 304 | 2.0 | 5.0 | 0.00 | 0.00 | 0.00 | 48 | 1013.4 |
| 20260508132008 | 67 | 120 | 1.0 | 4.0 | 0.00 | 0.00 | 0.00 | 52 | 1013.4 |
| 20260508131504 | 66 | 285 | 1.0 | 3.0 | 0.00 | 0.00 | 0.00 | 51 | 1013.4 |
| 20260508131003 | 66 | 286 | 1.0 | 5.0 | 0.00 | 0.00 | 0.00 | 47 | 1013.4 |
| 20260508130503 | 66 | 281 | 2.0 | 5.0 | 0.00 | 0.00 | 0.00 | 49 | 1013.5 |
| 20260508130003 | 66 | 233 | 1.0 | 5.0 | 0.00 | 0.00 | 0.00 | 52 | 1013.4 |
| 20260508125506 | 66 | 282 | 2.0 | 5.0 | 0.00 | 0.00 | 0.00 | 45 | 1013.4 |
| 20260508125003 | 67 | 257 | 1.0 | 4.0 | 0.00 | 0.00 | 0.00 | 48 | 1013.4 |
| 20260508124506 | 67 | 139 | 0.0 | 6.0 | 0.00 | 0.00 | 0.00 | 49 | 1013.3 |
| 20260508124005 | 66 | 114 | 1.0 | 7.0 | 0.00 | 0.00 | 0.00 | 45 | 1013.3 |
| 20260508123506 | 67 | 110 | 2.0 | 7.0 | 0.00 | 0.01 | 0.00 | 49 | 1013.3 |
| 20260508123013 | 68 | 119 | 2.0 | 6.0 | 0.00 | 0.01 | 0.00 | 48 | 1013.3 |
| 20260508122508 | 67 | 160 | 1.0 | 4.0 | 0.00 | 0.01 | 0.00 | 52 | 1013.4 |
| 20260508122010 | 67 | 63 | 2.0 | 6.0 | 0.00 | 0.01 | 0.00 | 44 | 1013.5 |
| 20260508121520 | 67 | 115 | 2.0 | 6.0 | 0.00 | 0.01 | 0.00 | 45 | 1013.5 |
| 20260508121009 | 67 | 103 | 1.0 | 3.0 | 0.00 | 0.01 | 0.00 | 47 | 1013.5 |
| 20260508120505 | 66 | 128 | 0.0 | 6.0 | 0.00 | 0.01 | 0.00 | 49 | 1013.5 |
| 20260508120023 | 66 | 139 | 2.0 | 6.0 | 0.00 | 0.01 | 0.00 | 44 | 1013.6 |
| 20260508115503 | 67 | 307 | 1.0 | 3.0 | 0.00 | 0.01 | 0.00 | 50 | 1013.6 |
| 20260508115002 | 66 | 102 | 0.0 | 2.0 | 0.00 | 0.01 | 0.00 | 48 | 1013.7 |
| 20260508114504 | 66 | 291 | 0.0 | 4.0 | 0.00 | 0.01 | 0.00 | 46 | 1013.7 |
| 20260508114003 | 66 | 112 | 2.0 | 4.0 | 0.00 | 0.01 | 0.00 | 51 | 1013.7 |
| 20260508113505 | 66 | 41 | 1.0 | 5.0 | 0.00 | 0.01 | 0.00 | 45 | 1013.8 |
| 20260508113012 | 66 | 87 | 0.0 | 5.0 | 0.00 | 0.01 | 0.00 | 47 | 1013.8 |
| 20260508112505 | 66 | 142 | 1.0 | 5.0 | 0.00 | 0.01 | 0.00 | 51 | 1013.8 |
| 20260508112008 | 66 | 82 | 0.0 | 5.0 | 0.00 | 0.01 | 0.00 | 52 | 1013.7 |
| 20260508111513 | 65 | 82 | 1.0 | 4.0 | 0.00 | 0.01 | 0.00 | 54 | 1013.9 |
| 20260508111008 | 65 | 115 | 1.0 | 4.0 | 0.00 | 0.01 | 0.00 | 54 | 1013.9 |
| 20260508110507 | 65 | 146 | 1.0 | 4.0 | 0.00 | 0.01 | 0.00 | 56 | 1014.0 |
| 20260508110022 | 65 | 138 | 1.0 | 4.0 | 0.00 | 0.02 | 0.00 | 54 | 1013.9 |
| 20260508105508 | 65 | 113 | 1.0 | 4.0 | 0.00 | 0.05 | 0.00 | 56 | 1014.0 |
| 20260508105011 | 63 | 165 | 1.0 | 3.0 | 0.00 | 0.10 | 0.00 | 55 | 1014.0 |
| 20260508104523 | 63 | 260 | 1.0 | 3.0 | 0.00 | 0.12 | 0.00 | 55 | 1014.0 |
| 20260508104006 | 63 | 150 | 1.0 | 3.0 | 0.00 | 0.12 | 0.00 | 58 | 1014.0 |
| 20260508103503 | 63 | 115 | 1.0 | 3.0 | 0.00 | 0.12 | 0.00 | 58 | 1014.1 |
| 20260508103005 | 62 | 101 | 1.0 | 2.0 | 0.00 | 0.12 | 0.00 | 57 | 1014.0 |
| 20260508102504 | 63 | 335 | 0.0 | 3.0 | 0.00 | 0.12 | 0.00 | 55 | 1014.0 |
| 20260508102004 | 64 | 124 | 1.0 | 3.0 | 0.00 | 0.12 | 0.00 | 54 | 1014.0 |
| 20260508101514 | 63 | 320 | 0.0 | 2.0 | 0.00 | 0.12 | 0.00 | 59 | 1014.0 |
| 20260508101010 | 62 | 71 | 0.0 | 2.0 | 0.00 | 0.12 | 0.00 | 61 | 1014.0 |
| 20260508100507 | 61 | 78 | 1.0 | 5.0 | 0.00 | 0.12 | 0.00 | 61 | 1014.1 |
| 20260508100017 | 62 | 252 | 1.0 | 5.0 | 0.00 | 0.12 | 0.00 | 58 | 1014.2 |
| 20260508095507 | 62 | 281 | 1.0 | 4.0 | 0.00 | 0.12 | 0.00 | 56 | 1014.2 |
| 20260508095013 | 62 | 290 | 2.0 | 4.0 | 0.00 | 0.12 | 0.00 | 57 | 1014.2 |
| 20260508094521 | 63 | 145 | 1.0 | 3.0 | 0.00 | 0.12 | 0.00 | 58 | 1014.3 |
| 20260508094006 | 63 | 278 | 0.0 | 3.0 | 0.00 | 0.12 | 0.00 | 60 | 1014.2 |
| 20260508093507 | 62 | 129 | 1.0 | 3.0 | 0.00 | 0.12 | 0.00 | 59 | 1014.2 |
| 20260508093023 | 62 | 202 | 0.0 | 3.0 | 0.00 | 0.12 | 0.00 | 62 | 1014.2 |
| 20260508092509 | 61 | 48 | 1.0 | 2.0 | 0.00 | 0.12 | 0.00 | 61 | 1014.2 |
| 20260508092006 | 62 | 134 | 0.0 | 2.0 | 0.00 | 0.12 | 0.00 | 63 | 1014.3 |
| 20260508091517 | 62 | 276 | 0.0 | 3.0 | 0.00 | 0.12 | 0.00 | 59 | 1014.2 |
| 20260508091003 | 62 | 156 | 1.0 | 4.0 | 0.00 | 0.12 | 0.00 | 64 | 1014.2 |
| 20260508090506 | 61 | 189 | 1.0 | 4.0 | 0.00 | 0.12 | 0.00 | 61 | 1014.3 |
| 20260508090015 | 61 | 139 | 1.0 | 2.0 | 0.00 | 0.12 | 0.00 | 62 | 1014.3 |
| 20260508085505 | 62 | 264 | 0.0 | 3.0 | 0.00 | 0.12 | 0.00 | 62 | 1014.3 |
| 20260508085010 | 62 | 100 | 1.0 | 3.0 | 0.00 | 0.12 | 0.00 | 63 | 1014.3 |
| 20260508084517 | 62 | 93 | 1.0 | 2.0 | 0.00 | 0.12 | 0.00 | 65 | 1014.3 |
| 20260508084007 | 61 | 128 | 1.0 | 2.0 | 0.00 | 0.12 | 0.00 | 64 | 1014.3 |
| 20260508083509 | 61 | 285 | 1.0 | 2.0 | 0.00 | 0.12 | 0.00 | 62 | 1014.3 |
| 20260508083031 | 61 | 335 | 0.0 | 5.0 | 0.00 | 0.12 | 0.00 | 67 | 1014.3 |
| 20260508082510 | 61 | 155 | 2.0 | 5.0 | 0.00 | 0.12 | 0.00 | 67 | 1014.3 |
| 20260508082012 | 60 | 349 | 1.0 | 4.0 | 0.00 | 0.12 | 0.00 | 66 | 1014.3 |
| 20260508081524 | 60 | 107 | 1.0 | 4.0 | 0.00 | 0.12 | 0.00 | 74 | 1014.3 |
| 20260508081009 | 60 | 90 | 0.0 | 4.0 | 0.00 | 0.12 | 0.00 | 75 | 1014.2 |
| 20260508080514 | 59 | 108 | 0.0 | 2.0 | 0.00 | 0.12 | 0.00 | 71 | 1014.2 |
| 20260508080008 | 59 | 84 | 0.0 | 2.0 | 0.00 | 0.12 | 0.00 | 75 | 1014.1 |
| 20260508075508 | 59 | 82 | 1.0 | 2.0 | 0.00 | 0.12 | 0.00 | 79 | 1014.1 |
| 20260508075007 | 59 | 98 | 1.0 | 2.0 | 0.00 | 0.12 | 0.00 | 77 | 1014.1 |
| 20260508074513 | 59 | 122 | 0.0 | 2.0 | 0.00 | 0.12 | 0.00 | 78 | 1014.1 |
| 20260508074009 | 59 | 102 | 0.0 | 2.0 | 0.00 | 0.12 | 0.00 | 77 | 1014.1 |
| 20260508073506 | 59 | 70 | 0.0 | 2.0 | 0.00 | 0.12 | 0.00 | 74 | 1014.1 |
| 20260508073021 | 59 | 117 | 0.0 | 2.0 | 0.00 | 0.12 | 0.00 | 78 | 1014.0 |
| 20260508072513 | 59 | 94 | 0.0 | 2.0 | 0.00 | 0.12 | 0.00 | 75 | 1014.0 |
| 20260508072011 | 59 | 94 | 1.0 | 5.0 | 0.00 | 0.12 | 0.00 | 75 | 1014.0 |
| 20260508071525 | 59 | 143 | 1.0 | 5.0 | 0.00 | 0.12 | 0.00 | 70 | 1014.0 |
| 20260508071009 | 59 | 106 | 1.0 | 3.0 | 0.00 | 0.12 | 0.00 | 75 | 1013.9 |
| 20260508070509 | 59 | 108 | 1.0 | 3.0 | 0.00 | 0.12 | 0.00 | 70 | 1013.9 |
| 20260508070027 | 59 | 150 | 1.0 | 3.0 | 0.00 | 0.12 | 0.00 | 71 | 1013.9 |
| 20260508065510 | 58 | 143 | 1.0 | 3.0 | 0.00 | 0.12 | 0.00 | 73 | 1013.9 |
| 20260508065007 | 58 | 106 | 0.0 | 3.0 | 0.00 | 0.12 | 0.00 | 75 | 1013.9 |
| 20260508064532 | 58 | 119 | 1.0 | 3.0 | 0.00 | 0.12 | 0.00 | 78 | 1013.9 |
| 20260508064003 | 58 | 139 | 0.0 | 2.0 | 0.00 | 0.12 | 0.00 | 72 | 1013.8 |
| 20260508063505 | 57 | 141 | 0.0 | 2.0 | 0.00 | 0.12 | 0.00 | 74 | 1013.7 |
| 20260508063016 | 57 | 129 | 0.0 | 2.0 | 0.00 | 0.12 | 0.00 | 74 | 1013.7 |
| 20260508062514 | 56 | 124 | 0.0 | 2.0 | 0.00 | 0.12 | 0.00 | 75 | 1013.8 |
| 20260508062006 | 55 | 135 | 0.0 | 2.0 | 0.00 | 0.12 | 0.00 | 77 | 1013.8 |
| 20260508061522 | 55 | 122 | 0.0 | 1.0 | 0.00 | 0.12 | 0.00 | 76 | 1013.7 |
| 20260508061006 | 54 | 117 | 0.0 | 1.0 | 0.00 | 0.12 | 0.00 | 78 | 1013.7 |
| 20260508060506 | 53 | 115 | 0.0 | 1.0 | 0.00 | 0.12 | 0.00 | 77 | 1013.6 |
| 20260508060027 | 53 | 109 | 0.0 | 2.0 | 0.00 | 0.12 | 0.00 | 77 | 1013.6 |
| 20260508055506 | 53 | 134 | 1.0 | 2.0 | 0.00 | 0.12 | 0.00 | 78 | 1013.6 |
| 20260508055006 | 53 | 121 | 0.0 | 2.0 | 0.00 | 0.12 | 0.00 | 77 | 1013.6 |
| 20260508054528 | 53 | 113 | 0.0 | 2.0 | 0.00 | 0.12 | 0.00 | 78 | 1013.5 |
| 20260508054010 | 52 | 126 | 0.0 | 1.0 | 0.00 | 0.12 | 0.00 | 78 | 1013.5 |